Time,TemperatureF,DewpointF,PressureIn,WindDirection,WindDirectionDegrees,WindSpeedMPH,WindSpeedGustMPH,Humidity,HourlyPrecipIn,Conditions,Clouds,dailyrainin,SoftwareType,DateUTC
2013-02-26 00:00:00,29.9,24.5,30.09,NE,50,5.0,8.0,80,0.00,,---,0.00,VWS V14.01,2013-02-26 06:00:00,
2013-02-26 00:05:00,29.9,24.8,30.09,North,356,1.0,8.0,81,0.00,,---,0.00,VWS V14.01,2013-02-26 06:05:00,
2013-02-26 00:10:00,29.8,24.7,30.09,NE,36,1.0,8.0,81,0.00,,---,0.00,VWS V14.01,2013-02-26 06:10:00,
2013-02-26 00:15:00,29.8,25.0,30.09,SE,134,2.0,8.0,82,0.00,,---,0.00,VWS V14.01,2013-02-26 06:15:00,
2013-02-26 00:20:00,29.8,25.0,30.08,East,94,2.0,8.0,82,0.00,,---,0.00,VWS V14.01,2013-02-26 06:20:00,
2013-02-26 00:25:00,29.7,24.9,30.09,NNE,29,4.0,8.0,82,0.00,,---,0.00,VWS V14.01,2013-02-26 06:25:00,
2013-02-26 00:30:00,29.8,25.0,30.09,East,90,1.0,4.0,82,0.00,,---,0.00,VWS V14.01,2013-02-26 06:30:00,
2013-02-26 00:35:00,29.8,25.0,30.09,ENE,68,3.0,6.0,82,0.00,,---,0.00,VWS V14.01,2013-02-26 06:35:00,
2013-02-26 00:40:00,29.7,25.2,30.08,East,79,2.0,6.0,83,0.00,,---,0.00,VWS V14.01,2013-02-26 06:40:00,
2013-02-26 00:45:00,29.6,25.1,30.08,NE,51,1.0,9.0,83,0.00,,---,0.00,VWS V14.01,2013-02-26 06:45:00,
2013-02-26 00:50:00,29.6,25.1,30.08,ENE,72,6.0,9.0,83,0.00,,---,0.00,VWS V14.01,2013-02-26 06:50:00,
2013-02-26 00:55:00,29.6,25.1,30.07,NE,34,1.0,9.0,83,0.00,,---,0.00,VWS V14.01,2013-02-26 06:55:00,
2013-02-26 01:00:00,29.6,25.4,30.08,ENE,64,2.0,5.0,84,0.00,,---,0.00,VWS V14.01,2013-02-26 07:00:00,
2013-02-26 01:05:00,29.5,25.3,30.08,East,83,3.0,8.0,84,0.00,,---,0.00,VWS V14.01,2013-02-26 07:05:00,
2013-02-26 01:10:00,29.6,25.1,30.08,NE,46,4.0,8.0,83,0.00,,---,0.00,VWS V14.01,2013-02-26 07:10:00,
2013-02-26 01:15:00,29.7,25.2,30.09,East,95,3.0,8.0,83,0.00,,---,0.00,VWS V14.01,2013-02-26 07:15:00,
2013-02-26 01:20:00,29.7,25.2,30.08,ENE,64,3.0,8.0,83,0.00,,---,0.00,VWS V14.01,2013-02-26 07:20:00,
2013-02-26 01:25:00,29.7,25.2,30.08,ENE,75,3.0,8.0,83,0.00,,---,0.00,VWS V14.01,2013-02-26 07:25:00,
2013-02-26 01:30:00,29.7,25.5,30.08,NNW,342,1.0,5.0,84,0.00,,---,0.00,VWS V14.01,2013-02-26 07:30:00,
2013-02-26 01:35:00,29.7,25.5,30.08,East,85,2.0,6.0,84,0.00,,---,0.00,VWS V14.01,2013-02-26 07:35:00,
2013-02-26 01:40:00,29.8,25.3,30.08,East,84,5.0,7.0,83,0.00,,---,0.00,VWS V14.01,2013-02-26 07:40:00,
2013-02-26 01:45:00,29.8,25.6,30.08,ENE,67,5.0,11.0,84,0.00,,---,0.00,VWS V14.01,2013-02-26 07:45:00,
2013-02-26 01:50:00,29.9,25.4,30.07,NE,46,4.0,11.0,83,0.00,,---,0.00,VWS V14.01,2013-02-26 07:50:00,
2013-02-26 01:55:00,29.9,25.4,30.06,NE,38,5.0,11.0,83,0.00,,---,0.00,VWS V14.01,2013-02-26 07:55:00,
2013-02-26 02:00:00,29.9,25.4,30.06,North,360,1.0,7.0,83,0.00,,---,0.00,VWS V14.01,2013-02-26 08:00:00,
2013-02-26 02:05:00,29.9,25.7,30.06,ENE,60,3.0,8.0,84,0.00,,---,0.00,VWS V14.01,2013-02-26 08:05:00,
2013-02-26 02:10:00,30.0,25.5,30.05,East,88,1.0,8.0,83,0.00,,---,0.00,VWS V14.01,2013-02-26 08:10:00,
2013-02-26 02:15:00,30.0,25.8,30.05,NE,50,2.0,11.0,84,0.00,,---,0.00,VWS V14.01,2013-02-26 08:15:00,
2013-02-26 02:20:00,30.0,25.5,30.05,North,358,0.0,11.0,83,0.00,,---,0.00,VWS V14.01,2013-02-26 08:20:00,
2013-02-26 02:25:00,30.0,25.8,30.05,ENE,60,6.0,11.0,84,0.00,,---,0.00,VWS V14.01,2013-02-26 08:25:00,
2013-02-26 02:30:00,30.1,25.9,30.04,ENE,68,1.0,12.0,84,0.00,,---,0.00,VWS V14.01,2013-02-26 08:30:00,
2013-02-26 02:35:00,30.2,25.7,30.04,NE,39,4.0,12.0,83,0.00,,---,0.00,VWS V14.01,2013-02-26 08:35:00,
2013-02-26 02:40:00,30.1,25.9,30.04,NE,35,3.0,12.0,84,0.00,,---,0.00,VWS V14.01,2013-02-26 08:40:00,
2013-02-26 02:45:00,30.1,25.9,30.04,ENE,60,4.0,12.0,84,0.00,,---,0.00,VWS V14.01,2013-02-26 08:45:00,
2013-02-26 02:50:00,30.0,25.8,30.03,NNE,22,2.0,12.0,84,0.00,,---,0.00,VWS V14.01,2013-02-26 08:50:00,
2013-02-26 02:55:00,30.0,25.8,30.02,ENE,58,3.0,12.0,84,0.00,,---,0.00,VWS V14.01,2013-02-26 08:55:00,
2013-02-26 03:00:00,29.9,25.7,30.02,East,83,2.0,9.0,84,0.00,,---,0.00,VWS V14.01,2013-02-26 09:00:00,
2013-02-26 03:05:00,30.0,25.8,30.01,ENE,70,2.0,9.0,84,0.00,,---,0.00,VWS V14.01,2013-02-26 09:05:00,
2013-02-26 03:10:00,29.9,25.7,30.00,East,97,1.0,11.0,84,0.00,,---,0.00,VWS V14.01,2013-02-26 09:10:00,
2013-02-26 03:15:00,29.9,26.0,30.00,NNW,343,2.0,16.0,85,0.00,,---,0.00,VWS V14.01,2013-02-26 09:15:00,
2013-02-26 03:20:00,30.0,25.8,29.99,NE,46,7.0,16.0,84,0.00,,---,0.00,VWS V14.01,2013-02-26 09:20:00,
2013-02-26 03:25:00,29.9,25.7,29.99,ESE,111,1.0,16.0,84,0.00,,---,0.00,VWS V14.01,2013-02-26 09:25:00,
2013-02-26 03:30:00,30.0,25.8,29.98,South,182,3.0,8.0,84,0.00,,---,0.00,VWS V14.01,2013-02-26 09:30:00,
2013-02-26 03:35:00,30.0,25.8,29.98,ESE,103,12.0,14.0,84,0.00,,---,0.00,VWS V14.01,2013-02-26 09:35:00,
2013-02-26 03:40:00,30.2,26.0,29.97,ESE,110,2.0,14.0,84,0.00,,---,0.00,VWS V14.01,2013-02-26 09:40:00,
2013-02-26 03:45:00,30.3,25.8,29.97,ENE,71,3.0,14.0,83,0.00,,---,0.00,VWS V14.01,2013-02-26 09:45:00,
2013-02-26 03:50:00,30.4,25.9,29.97,ENE,68,9.0,14.0,83,0.00,,---,0.00,VWS V14.01,2013-02-26 09:50:00,
2013-02-26 03:54:00,30.4,25.9,29.97,NE,44,2.0,14.0,83,0.00,,---,0.00,VWS V14.01,2013-02-26 09:54:00,
2013-02-26 03:59:00,30.5,26.0,29.96,ENE,58,2.0,10.0,83,0.00,,---,0.00,VWS V14.01,2013-02-26 09:59:00,
2013-02-26 04:00:00,30.5,26.0,29.97,NNE,27,8.0,14.0,83,0.00,,---,0.00,VWS V14.01,2013-02-26 10:00:00,
2013-02-26 04:04:00,30.5,26.0,29.96,ENE,78,3.0,10.0,83,0.00,,---,0.00,VWS V14.01,2013-02-26 10:04:00,
2013-02-26 04:10:00,30.5,26.0,29.97,ENE,64,5.0,11.0,83,0.00,,---,0.00,VWS V14.01,2013-02-26 10:10:00,
2013-02-26 04:15:00,30.6,26.1,29.97,NE,46,1.0,13.0,83,0.00,,---,0.00,VWS V14.01,2013-02-26 10:15:00,
2013-02-26 04:20:00,30.6,26.1,29.97,NE,51,2.0,13.0,83,0.00,,---,0.00,VWS V14.01,2013-02-26 10:20:00,
2013-02-26 04:25:00,30.7,26.2,29.97,ENE,58,4.0,13.0,83,0.00,,---,0.00,VWS V14.01,2013-02-26 10:25:00,
2013-02-26 04:30:00,30.7,25.9,29.97,SSW,195,3.0,13.0,82,0.00,,---,0.00,VWS V14.01,2013-02-26 10:30:00,
2013-02-26 04:35:00,30.7,26.2,29.97,South,183,1.0,13.0,83,0.00,,---,0.00,VWS V14.01,2013-02-26 10:35:00,
2013-02-26 04:39:00,30.7,25.9,29.97,ESE,110,5.0,13.0,82,0.00,,---,0.00,VWS V14.01,2013-02-26 10:39:00,
2013-02-26 04:44:00,30.8,26.3,29.97,ESE,117,2.0,13.0,83,0.00,,---,0.00,VWS V14.01,2013-02-26 10:44:00,
2013-02-26 04:49:00,30.8,26.3,29.98,SE,133,3.0,13.0,83,0.00,,---,0.00,VWS V14.01,2013-02-26 10:49:00,
2013-02-26 04:54:00,30.8,26.3,29.98,ENE,75,2.0,13.0,83,0.00,,---,0.00,VWS V14.01,2013-02-26 10:54:00,
2013-02-26 04:59:00,30.6,26.4,29.99,NE,44,5.0,7.0,84,0.00,,---,0.00,VWS V14.01,2013-02-26 10:59:00,
2013-02-26 05:00:00,30.7,26.2,29.98,NE,41,4.0,13.0,83,0.00,,---,0.00,VWS V14.01,2013-02-26 11:00:00,
2013-02-26 05:04:00,30.7,26.5,29.98,NE,51,4.0,11.0,84,0.00,,---,0.00,VWS V14.01,2013-02-26 11:04:00,
2013-02-26 05:09:00,30.7,26.5,29.97,NNE,15,6.0,17.0,84,0.00,,---,0.00,VWS V14.01,2013-02-26 11:09:00,
2013-02-26 05:14:00,30.6,26.6,29.96,ENE,70,4.0,17.0,85,0.00,,---,0.00,VWS V14.01,2013-02-26 11:14:00,
2013-02-26 05:19:00,30.6,26.6,29.95,East,80,4.0,17.0,85,0.00,,---,0.00,VWS V14.01,2013-02-26 11:19:00,
2013-02-26 05:24:00,30.6,26.6,29.96,East,85,5.0,17.0,85,0.00,,---,0.00,VWS V14.01,2013-02-26 11:24:00,
2013-02-26 05:29:00,30.5,26.5,29.95,ENE,68,7.0,12.0,85,0.00,,---,0.00,VWS V14.01,2013-02-26 11:29:00,
2013-02-26 05:30:00,30.6,26.6,29.95,ESE,104,7.0,17.0,85,0.00,,---,0.00,VWS V14.01,2013-02-26 11:30:00,
2013-02-26 05:34:00,30.5,26.5,29.94,NE,34,12.0,12.0,85,0.00,,---,0.00,VWS V14.01,2013-02-26 11:34:00,
2013-02-26 05:39:00,30.5,26.8,29.94,ENE,68,5.0,12.0,86,0.00,,---,0.00,VWS V14.01,2013-02-26 11:39:00,
2013-02-26 05:44:00,30.5,26.8,29.94,NE,54,16.0,16.0,86,0.00,,---,0.00,VWS V14.01,2013-02-26 11:44:00,
2013-02-26 05:49:00,30.5,26.8,29.93,East,92,5.0,16.0,86,0.00,,---,0.00,VWS V14.01,2013-02-26 11:49:00,
2013-02-26 05:54:00,30.5,26.8,29.94,ESE,117,3.0,16.0,86,0.00,,---,0.00,VWS V14.01,2013-02-26 11:54:00,
2013-02-26 05:59:00,30.6,26.9,29.95,ENE,71,3.0,10.0,86,0.00,,---,0.00,VWS V14.01,2013-02-26 11:59:00,
2013-02-26 06:00:00,30.6,26.9,29.95,NE,54,6.0,16.0,86,0.00,,---,0.00,VWS V14.01,2013-02-26 12:00:00,
2013-02-26 06:04:00,30.6,26.9,29.95,NNW,340,3.0,14.0,86,0.00,,---,0.00,VWS V14.01,2013-02-26 12:04:00,
2013-02-26 06:09:00,30.6,26.9,29.95,ENE,61,4.0,14.0,86,0.00,,---,0.00,VWS V14.01,2013-02-26 12:09:00,
2013-02-26 06:14:00,30.6,26.9,29.93,ESE,102,4.0,14.0,86,0.00,,---,0.00,VWS V14.01,2013-02-26 12:14:00,
2013-02-26 06:19:00,30.6,27.2,29.93,ESE,111,7.0,14.0,87,0.00,,---,0.00,VWS V14.01,2013-02-26 12:19:00,
2013-02-26 06:24:00,30.6,26.9,29.93,NNE,30,7.0,14.0,86,0.00,,---,0.00,VWS V14.01,2013-02-26 12:24:00,
2013-02-26 06:29:00,30.7,27.0,29.93,SW,219,1.0,15.0,86,0.00,,---,0.00,VWS V14.01,2013-02-26 12:29:00,
2013-02-26 06:30:00,30.6,26.9,29.93,ENE,68,15.0,15.0,86,0.00,,---,0.00,VWS V14.01,2013-02-26 12:30:00,
2013-02-26 06:34:00,30.7,27.0,29.92,ESE,105,6.0,16.0,86,0.00,,---,0.00,VWS V14.01,2013-02-26 12:34:00,
2013-02-26 06:39:00,30.7,27.0,29.92,ENE,60,6.0,16.0,86,0.00,,---,0.00,VWS V14.01,2013-02-26 12:39:00,
2013-02-26 06:44:00,30.8,27.1,29.92,NE,40,9.0,16.0,86,0.00,,---,0.00,VWS V14.01,2013-02-26 12:44:00,
2013-02-26 06:49:00,30.8,27.1,29.92,NE,44,4.0,16.0,86,0.00,,---,0.00,VWS V14.01,2013-02-26 12:49:00,
2013-02-26 06:54:00,30.8,27.1,29.92,ENE,60,4.0,16.0,86,0.00,,---,0.00,VWS V14.01,2013-02-26 12:54:00,
2013-02-26 06:59:00,30.9,27.2,29.92,ENE,71,2.0,8.0,86,0.00,,---,0.00,VWS V14.01,2013-02-26 12:59:00,
2013-02-26 07:00:00,30.9,27.2,29.92,ENE,60,8.0,16.0,86,0.00,,---,0.00,VWS V14.01,2013-02-26 13:00:00,
2013-02-26 07:04:00,31.0,27.3,29.92,NNE,33,3.0,12.0,86,0.00,,---,0.00,VWS V14.01,2013-02-26 13:04:00,
2013-02-26 07:09:00,31.1,27.1,29.92,East,92,5.0,17.0,85,0.00,,---,0.00,VWS V14.01,2013-02-26 13:09:00,
2013-02-26 07:14:00,31.1,27.1,29.93,East,85,3.0,17.0,85,0.00,,---,0.00,VWS V14.01,2013-02-26 13:14:00,
2013-02-26 07:19:00,31.2,27.2,29.93,ENE,61,7.0,17.0,85,0.00,,---,0.00,VWS V14.01,2013-02-26 13:19:00,
2013-02-26 07:24:00,31.4,27.4,29.93,ENE,65,3.0,17.0,85,0.00,,---,0.00,VWS V14.01,2013-02-26 13:24:00,
2013-02-26 07:29:00,31.6,27.6,29.93,ENE,58,7.0,13.0,85,0.00,,---,0.00,VWS V14.01,2013-02-26 13:29:00,
2013-02-26 07:30:00,31.6,27.6,29.93,NE,41,13.0,17.0,85,0.00,,---,0.00,VWS V14.01,2013-02-26 13:30:00,
2013-02-26 07:34:00,31.6,27.3,29.92,East,98,7.0,20.0,84,0.00,,---,0.00,VWS V14.01,2013-02-26 13:34:00,
2013-02-26 07:39:00,31.7,27.4,29.91,SSE,162,4.0,20.0,84,0.00,,---,0.00,VWS V14.01,2013-02-26 13:39:00,
2013-02-26 07:44:00,31.9,27.6,29.89,NE,52,5.0,20.0,84,0.00,,---,0.00,VWS V14.01,2013-02-26 13:44:00,
2013-02-26 07:49:00,32.0,27.4,29.89,NE,41,9.0,20.0,83,0.00,,---,0.00,VWS V14.01,2013-02-26 13:49:00,
2013-02-26 07:54:00,32.1,27.5,29.90,NNE,19,4.0,20.0,83,0.00,,---,0.00,VWS V14.01,2013-02-26 13:54:00,
2013-02-26 07:59:00,32.1,27.2,29.89,ENE,60,3.0,11.0,82,0.00,,---,0.00,VWS V14.01,2013-02-26 13:59:00,
2013-02-26 08:00:00,32.1,27.2,29.90,East,94,4.0,20.0,82,0.00,,---,0.00,VWS V14.01,2013-02-26 14:00:00,
2013-02-26 08:04:00,32.3,27.7,29.90,East,86,4.0,11.0,83,0.00,,---,0.00,VWS V14.01,2013-02-26 14:04:00,
2013-02-26 08:09:00,32.4,27.5,29.90,NE,46,3.0,17.0,82,0.00,,---,0.00,VWS V14.01,2013-02-26 14:09:00,
2013-02-26 08:14:00,32.4,27.5,29.90,NE,53,20.0,20.0,82,0.00,,---,0.00,VWS V14.01,2013-02-26 14:14:00,
2013-02-26 08:19:00,32.5,27.6,29.89,North,10,2.0,20.0,82,0.00,,---,0.00,VWS V14.01,2013-02-26 14:19:00,
2013-02-26 08:24:00,32.6,27.7,29.89,NE,47,10.0,20.0,82,0.00,,---,0.00,VWS V14.01,2013-02-26 14:24:00,
2013-02-26 08:29:00,32.7,27.5,29.88,ENE,77,2.0,12.0,81,0.00,,---,0.00,VWS V14.01,2013-02-26 14:29:00,
2013-02-26 08:30:00,32.7,27.8,29.89,East,84,5.0,20.0,82,0.00,,---,0.00,VWS V14.01,2013-02-26 14:30:00,
2013-02-26 08:34:00,32.8,27.6,29.88,ESE,108,3.0,14.0,81,0.00,,---,0.00,VWS V14.01,2013-02-26 14:34:00,
2013-02-26 08:39:00,33.0,27.8,29.88,ESE,115,5.0,16.0,81,0.00,,---,0.00,VWS V14.01,2013-02-26 14:39:00,
2013-02-26 08:44:00,33.0,27.8,29.88,NE,51,5.0,19.0,81,0.00,,---,0.00,VWS V14.01,2013-02-26 14:44:00,
2013-02-26 08:49:00,32.9,27.4,29.87,ESE,105,4.0,19.0,80,0.00,,---,0.00,VWS V14.01,2013-02-26 14:49:00,
2013-02-26 08:54:00,32.9,27.7,29.86,ESE,105,2.0,19.0,81,0.00,,---,0.00,VWS V14.01,2013-02-26 14:54:00,
2013-02-26 08:59:00,32.9,27.7,29.86,ENE,64,7.0,12.0,81,0.00,,---,0.00,VWS V14.01,2013-02-26 14:59:00,
2013-02-26 09:00:00,32.9,27.4,29.86,NNE,24,12.0,21.0,80,0.00,,---,0.00,VWS V14.01,2013-02-26 15:00:00,
2013-02-26 09:04:00,33.0,27.8,29.85,East,92,5.0,15.0,81,0.00,,---,0.00,VWS V14.01,2013-02-26 15:04:00,
2013-02-26 09:09:00,33.1,27.6,29.85,NNE,33,9.0,23.0,80,0.00,,---,0.00,VWS V14.01,2013-02-26 15:09:00,
2013-02-26 09:14:00,33.2,27.7,29.85,NE,43,7.0,23.0,80,0.00,,---,0.00,VWS V14.01,2013-02-26 15:14:00,
2013-02-26 09:19:00,33.2,27.7,29.85,SE,130,3.0,23.0,80,0.00,,---,0.00,VWS V14.01,2013-02-26 15:19:00,
2013-02-26 09:24:00,33.1,27.9,29.84,ENE,65,7.0,23.0,81,0.00,,---,0.00,VWS V14.01,2013-02-26 15:24:00,
2013-02-26 09:29:00,33.0,27.8,29.84,NE,56,7.0,16.0,81,0.00,,---,0.00,VWS V14.01,2013-02-26 15:29:00,
2013-02-26 09:30:00,33.0,27.8,29.84,ENE,74,16.0,23.0,81,0.00,,---,0.00,VWS V14.01,2013-02-26 15:30:00,
2013-02-26 09:34:00,32.9,27.7,29.84,SE,133,2.0,16.0,81,0.00,,---,0.00,VWS V14.01,2013-02-26 15:34:00,
2013-02-26 09:39:00,32.9,28.0,29.84,NE,40,7.0,19.0,82,0.00,,---,0.00,VWS V14.01,2013-02-26 15:39:00,
2013-02-26 09:44:00,32.8,27.9,29.84,NE,41,5.0,19.0,82,0.00,,---,0.00,VWS V14.01,2013-02-26 15:44:00,
2013-02-26 09:49:00,32.7,28.1,29.84,ENE,64,3.0,19.0,83,0.00,,---,0.00,VWS V14.01,2013-02-26 15:49:00,
2013-02-26 09:54:00,32.6,28.6,29.85,SSE,148,2.0,19.0,85,0.00,,---,0.00,VWS V14.01,2013-02-26 15:54:00,
2013-02-26 09:59:00,32.4,28.7,29.84,ENE,58,10.0,14.0,86,0.00,,---,0.00,VWS V14.01,2013-02-26 15:59:00,
2013-02-26 10:00:00,32.5,28.8,29.84,SSE,151,12.0,20.0,86,0.00,,---,0.00,VWS V14.01,2013-02-26 16:00:00,
2013-02-26 10:04:00,32.3,28.9,29.84,East,86,5.0,14.0,87,0.00,,---,0.00,VWS V14.01,2013-02-26 16:04:00,
2013-02-26 10:09:00,32.3,28.9,29.83,NE,53,3.0,21.0,87,0.00,,---,0.00,VWS V14.01,2013-02-26 16:09:00,
2013-02-26 10:14:00,32.2,29.0,29.83,NNE,28,4.0,21.0,88,0.00,,---,0.00,VWS V14.01,2013-02-26 16:14:00,
2013-02-26 10:19:00,32.3,29.4,29.83,SE,141,3.0,21.0,89,0.00,,---,0.00,VWS V14.01,2013-02-26 16:19:00,
2013-02-26 10:24:00,32.3,29.4,29.82,ENE,67,7.0,21.0,89,0.00,,---,0.00,VWS V14.01,2013-02-26 16:24:00,
2013-02-26 10:29:00,32.5,29.6,29.81,ESE,112,11.0,11.0,89,0.00,,---,0.00,VWS V14.01,2013-02-26 16:29:00,
2013-02-26 10:30:00,32.5,29.6,29.82,NNE,30,6.0,21.0,89,0.00,,---,0.00,VWS V14.01,2013-02-26 16:30:00,
2013-02-26 10:34:00,32.5,29.6,29.81,ESE,103,3.0,19.0,89,0.00,,---,0.00,VWS V14.01,2013-02-26 16:34:00,
2013-02-26 10:39:00,32.3,29.7,29.81,ESE,109,9.0,19.0,90,0.00,,---,0.00,VWS V14.01,2013-02-26 16:39:00,
2013-02-26 10:44:00,32.2,29.6,29.80,NE,44,4.0,19.0,90,0.00,,---,0.00,VWS V14.01,2013-02-26 16:44:00,
2013-02-26 10:49:00,32.1,29.8,29.80,ENE,71,3.0,20.0,91,0.00,,---,0.00,VWS V14.01,2013-02-26 16:49:00,
2013-02-26 10:54:00,32.1,29.8,29.80,NNW,348,7.0,20.0,91,0.00,,---,0.00,VWS V14.01,2013-02-26 16:54:00,
2013-02-26 10:59:00,32.1,30.0,29.79,ESE,111,5.0,12.0,92,0.00,,---,0.00,VWS V14.01,2013-02-26 16:59:00,
2013-02-26 11:00:00,32.1,30.0,29.79,NNE,19,5.0,20.0,92,0.00,,---,0.00,VWS V14.01,2013-02-26 17:00:00,
2013-02-26 11:04:00,32.1,30.0,29.78,ENE,74,6.0,12.0,92,0.00,,---,0.00,VWS V14.01,2013-02-26 17:04:00,
2013-02-26 11:09:00,32.1,30.0,29.78,ENE,70,5.0,17.0,92,0.00,,---,0.00,VWS V14.01,2013-02-26 17:09:00,
2013-02-26 11:14:00,32.1,30.3,29.77,ENE,58,10.0,17.0,93,0.00,,---,0.00,VWS V14.01,2013-02-26 17:14:00,
2013-02-26 11:30:00,31.8,30.0,29.76,WNW,297,2.0,18.0,93,0.00,,---,0.00,VWS V14.01,2013-02-26 17:30:00,
2013-02-26 11:49:00,31.7,29.9,29.73,NE,50,4.0,19.0,93,0.00,,---,0.00,VWS V14.01,2013-02-26 17:49:00,
2013-02-26 11:54:00,31.7,30.2,29.72,East,81,6.0,19.0,94,0.00,,---,0.00,VWS V14.01,2013-02-26 17:54:00,
2013-02-26 11:59:00,31.7,30.2,29.71,NE,38,7.0,16.0,94,0.00,,---,0.00,VWS V14.01,2013-02-26 17:59:00,
2013-02-26 12:00:00,31.7,30.2,29.72,NNE,25,16.0,23.0,94,0.00,,---,0.00,VWS V14.01,2013-02-26 18:00:00,
2013-02-26 12:07:00,31.6,30.1,29.70,NNE,19,1.0,16.0,94,0.00,,---,0.00,VWS V14.01,2013-02-26 18:07:00,
2013-02-26 12:13:00,31.7,30.2,29.70,ESE,120,2.0,16.0,94,0.00,,---,0.00,VWS V14.01,2013-02-26 18:13:00,
2013-02-26 12:30:00,31.8,30.3,29.68,ENE,61,2.0,18.0,94,0.00,,---,0.00,VWS V14.01,2013-02-26 18:30:00,
2013-02-26 12:48:00,31.8,30.5,29.68,NNE,27,6.0,25.0,95,0.00,,---,0.00,VWS V14.01,2013-02-26 18:48:00,
2013-02-26 13:00:00,31.8,30.5,29.68,NE,41,9.0,25.0,95,0.00,,---,0.00,VWS V14.01,2013-02-26 19:00:00,
2013-02-26 13:04:00,31.8,30.5,29.67,ENE,58,14.0,17.0,95,0.00,,---,0.00,VWS V14.01,2013-02-26 19:04:00,
2013-02-26 13:09:00,31.8,30.5,29.67,East,98,5.0,21.0,95,0.00,,---,0.00,VWS V14.01,2013-02-26 19:09:00,
2013-02-26 13:15:00,31.8,30.5,29.67,ESE,110,4.0,21.0,95,0.00,,---,0.00,VWS V14.01,2013-02-26 19:15:00,
2013-02-26 13:20:00,31.8,30.8,29.66,ENE,75,8.0,21.0,96,0.00,,---,0.00,VWS V14.01,2013-02-26 19:20:00,
2013-02-26 13:25:00,31.8,30.8,29.66,East,93,14.0,21.0,96,0.00,,---,0.00,VWS V14.01,2013-02-26 19:25:00,
2013-02-26 13:30:00,31.8,30.8,29.66,ENE,68,7.0,11.0,96,0.00,,---,0.00,VWS V14.01,2013-02-26 19:30:00,
2013-02-26 13:38:00,31.8,30.8,29.66,NNW,347,5.0,12.0,96,0.00,,---,0.00,VWS V14.01,2013-02-26 19:38:00,
2013-02-26 13:44:00,31.9,30.9,29.66,ENE,60,10.0,17.0,96,0.00,,---,0.00,VWS V14.01,2013-02-26 19:44:00,
2013-02-26 13:49:00,31.9,30.9,29.65,SE,129,4.0,17.0,96,0.00,,---,0.00,VWS V14.01,2013-02-26 19:49:00,
2013-02-26 13:54:00,31.9,30.9,29.65,SE,135,4.0,17.0,96,0.00,,---,0.00,VWS V14.01,2013-02-26 19:54:00,
2013-02-26 13:59:00,32.0,31.0,29.66,ENE,68,4.0,9.0,96,0.00,,---,0.00,VWS V14.01,2013-02-26 19:59:00,
2013-02-26 14:00:00,32.0,31.0,29.66,East,80,4.0,17.0,96,0.00,,---,0.00,VWS V14.01,2013-02-26 20:00:00,
2013-02-26 14:04:00,32.0,31.0,29.65,NNE,13,3.0,12.0,96,0.00,,---,0.00,VWS V14.01,2013-02-26 20:04:00,
2013-02-26 14:09:00,32.0,31.0,29.66,SE,144,1.0,14.0,96,0.00,,---,0.00,VWS V14.01,2013-02-26 20:09:00,
2013-02-26 14:14:00,32.0,31.0,29.65,NE,52,5.0,14.0,96,0.00,,---,0.00,VWS V14.01,2013-02-26 20:14:00,
2013-02-26 14:19:00,32.0,31.0,29.65,ENE,58,3.0,14.0,96,0.00,,---,0.00,VWS V14.01,2013-02-26 20:19:00,
2013-02-26 14:24:00,32.0,31.0,29.65,NW,307,1.0,14.0,96,0.00,,---,0.00,VWS V14.01,2013-02-26 20:24:00,
2013-02-26 14:29:00,32.0,31.0,29.65,South,187,4.0,4.0,96,0.00,,---,0.00,VWS V14.01,2013-02-26 20:29:00,
2013-02-26 14:30:00,32.0,31.0,29.65,NE,42,2.0,14.0,96,0.00,,---,0.00,VWS V14.01,2013-02-26 20:30:00,
2013-02-26 14:34:00,32.1,31.1,29.64,ESE,107,1.0,11.0,96,0.00,,---,0.00,VWS V14.01,2013-02-26 20:34:00,
2013-02-26 14:39:00,32.1,31.4,29.64,NE,49,3.0,12.0,97,0.00,,---,0.00,VWS V14.01,2013-02-26 20:39:00,
2013-02-26 14:44:00,32.1,31.4,29.63,SE,142,5.0,13.0,97,0.00,,---,0.00,VWS V14.01,2013-02-26 20:44:00,
2013-02-26 14:49:00,32.1,31.4,29.63,ESE,105,6.0,13.0,97,0.00,,---,0.00,VWS V14.01,2013-02-26 20:49:00,
2013-02-26 14:54:00,32.2,31.5,29.63,ENE,71,4.0,13.0,97,0.00,,---,0.00,VWS V14.01,2013-02-26 20:54:00,
2013-02-26 14:59:00,32.2,31.5,29.63,North,358,4.0,9.0,97,0.00,,---,0.00,VWS V14.01,2013-02-26 20:59:00,
2013-02-26 15:00:00,32.2,31.5,29.63,ESE,105,9.0,13.0,97,0.00,,---,0.00,VWS V14.01,2013-02-26 21:00:00,
2013-02-26 15:04:00,32.2,31.5,29.63,SSE,166,3.0,14.0,97,0.00,,---,0.00,VWS V14.01,2013-02-26 21:04:00,
2013-02-26 15:09:00,32.3,31.5,29.62,NE,56,8.0,17.0,97,0.00,,---,0.00,VWS V14.01,2013-02-26 21:09:00,
2013-02-26 15:14:00,32.3,31.5,29.62,ESE,117,5.0,17.0,97,0.00,,---,0.00,VWS V14.01,2013-02-26 21:14:00,
2013-02-26 15:19:00,32.3,31.5,29.62,East,96,7.0,17.0,97,0.00,,---,0.00,VWS V14.01,2013-02-26 21:19:00,
2013-02-26 15:24:00,32.3,31.5,29.61,East,97,11.0,17.0,97,0.00,,---,0.00,VWS V14.01,2013-02-26 21:24:00,
2013-02-26 15:29:00,32.3,31.5,29.61,ENE,60,3.0,5.0,97,0.00,,---,0.00,VWS V14.01,2013-02-26 21:29:00,
2013-02-26 15:30:00,32.3,31.5,29.61,East,101,4.0,17.0,97,0.00,,---,0.00,VWS V14.01,2013-02-26 21:30:00,
2013-02-26 15:34:00,32.3,31.5,29.61,NNW,341,7.0,11.0,97,0.00,,---,0.00,VWS V14.01,2013-02-26 21:34:00,
2013-02-26 15:39:00,32.3,31.5,29.61,ENE,71,4.0,16.0,97,0.00,,---,0.00,VWS V14.01,2013-02-26 21:39:00,
2013-02-26 15:44:00,32.4,31.6,29.60,ENE,75,5.0,17.0,97,0.00,,---,0.00,VWS V14.01,2013-02-26 21:44:00,
2013-02-26 15:49:00,32.4,31.6,29.60,ENE,65,4.0,17.0,97,0.00,,---,0.00,VWS V14.01,2013-02-26 21:49:00,
2013-02-26 15:54:00,32.4,31.6,29.59,NE,44,7.0,17.0,97,0.00,,---,0.00,VWS V14.01,2013-02-26 21:54:00,
2013-02-26 15:59:00,32.4,31.6,29.59,NNE,13,7.0,8.0,97,0.00,,---,0.00,VWS V14.01,2013-02-26 21:59:00,
2013-02-26 16:00:00,32.4,31.6,29.59,SSE,148,2.0,17.0,97,0.00,,---,0.00,VWS V14.01,2013-02-26 22:00:00,
2013-02-26 16:04:00,32.5,31.7,29.59,ENE,57,7.0,17.0,97,0.00,,---,0.00,VWS V14.01,2013-02-26 22:04:00,
2013-02-26 16:09:00,32.5,31.7,29.58,ESE,115,6.0,17.0,97,0.00,,---,0.00,VWS V14.01,2013-02-26 22:09:00,
2013-02-26 16:14:00,32.5,31.7,29.59,ENE,67,5.0,17.0,97,0.00,,---,0.00,VWS V14.01,2013-02-26 22:14:00,
2013-02-26 16:19:00,32.5,31.7,29.59,SE,126,5.0,17.0,97,0.00,,---,0.00,VWS V14.01,2013-02-26 22:19:00,
2013-02-26 16:24:00,32.6,31.8,29.58,ENE,67,4.0,17.0,97,0.00,,---,0.00,VWS V14.01,2013-02-26 22:24:00,
2013-02-26 16:29:00,32.7,31.9,29.58,ESE,103,4.0,7.0,97,0.00,,---,0.00,VWS V14.01,2013-02-26 22:29:00,
2013-02-26 16:30:00,32.7,31.9,29.58,ESE,119,6.0,17.0,97,0.00,,---,0.00,VWS V14.01,2013-02-26 22:30:00,
2013-02-26 16:34:00,32.7,31.9,29.58,East,89,5.0,13.0,97,0.00,,---,0.00,VWS V14.01,2013-02-26 22:34:00,
2013-02-26 16:39:00,32.7,31.9,29.58,NNE,28,12.0,15.0,97,0.00,,---,0.00,VWS V14.01,2013-02-26 22:39:00,
2013-02-26 16:44:00,32.7,31.9,29.58,East,91,3.0,17.0,97,0.00,,---,0.00,VWS V14.01,2013-02-26 22:44:00,
2013-02-26 16:49:00,32.8,32.0,29.57,East,86,1.0,17.0,97,0.00,,---,0.00,VWS V14.01,2013-02-26 22:49:00,
2013-02-26 16:54:00,32.7,31.9,29.58,NE,54,6.0,17.0,97,0.00,,---,0.00,VWS V14.01,2013-02-26 22:54:00,
2013-02-26 16:59:00,32.7,31.9,29.57,NE,43,11.0,12.0,97,0.00,,---,0.00,VWS V14.01,2013-02-26 22:59:00,
2013-02-26 17:00:00,32.7,31.9,29.57,ENE,60,3.0,17.0,97,0.00,,---,0.00,VWS V14.01,2013-02-26 23:00:00,
2013-02-26 17:04:00,32.8,32.0,29.58,NE,51,3.0,14.0,97,0.00,,---,0.00,VWS V14.01,2013-02-26 23:04:00,
2013-02-26 17:09:00,32.7,31.9,29.57,ENE,73,2.0,14.0,97,0.00,,---,0.00,VWS V14.01,2013-02-26 23:09:00,
2013-02-26 17:14:00,32.8,32.0,29.57,NE,34,6.0,14.0,97,0.00,,---,0.00,VWS V14.01,2013-02-26 23:14:00,
2013-02-26 17:19:00,32.8,32.0,29.58,ENE,64,3.0,14.0,97,0.00,,---,0.00,VWS V14.01,2013-02-26 23:19:00,
2013-02-26 17:24:00,32.8,32.0,29.58,ENE,64,6.0,14.0,97,0.00,,---,0.00,VWS V14.01,2013-02-26 23:24:00,
2013-02-26 17:29:00,32.7,31.9,29.57,ESE,115,0.0,4.0,97,0.00,,---,0.00,VWS V14.01,2013-02-26 23:29:00,
2013-02-26 17:30:00,32.7,31.9,29.58,East,88,0.0,14.0,97,0.00,,---,0.00,VWS V14.01,2013-02-26 23:30:00,
2013-02-26 17:34:00,32.7,31.9,29.57,East,99,10.0,10.0,97,0.00,,---,0.00,VWS V14.01,2013-02-26 23:34:00,
2013-02-26 17:39:00,32.8,32.0,29.57,East,101,7.0,12.0,97,0.00,,---,0.00,VWS V14.01,2013-02-26 23:39:00,
2013-02-26 17:44:00,32.8,32.3,29.57,NNE,28,7.0,12.0,98,0.00,,---,0.00,VWS V14.01,2013-02-26 23:44:00,
2013-02-26 17:49:00,32.9,32.4,29.57,ENE,63,4.0,12.0,98,0.00,,---,0.00,VWS V14.01,2013-02-26 23:49:00,
2013-02-26 17:54:00,32.9,32.4,29.56,NE,44,3.0,15.0,98,0.00,,---,0.00,VWS V14.01,2013-02-26 23:54:00,
2013-02-26 17:59:00,32.9,32.4,29.56,ENE,67,4.0,4.0,98,0.00,,---,0.00,VWS V14.01,2013-02-26 23:59:00,
2013-02-26 18:00:00,32.9,32.4,29.57,ESE,122,1.0,15.0,98,0.00,,---,0.00,VWS V14.01,2013-02-27 00:00:00,
2013-02-26 18:04:00,32.9,32.4,29.56,ENE,67,5.0,11.0,98,0.00,,---,0.00,VWS V14.01,2013-02-27 00:04:00,
2013-02-26 18:09:00,32.9,32.4,29.56,NNE,28,11.0,13.0,98,0.00,,---,0.00,VWS V14.01,2013-02-27 00:09:00,
2013-02-26 18:14:00,32.9,32.4,29.56,ESE,103,4.0,13.0,98,0.00,,---,0.00,VWS V14.01,2013-02-27 00:14:00,
2013-02-26 18:19:00,33.0,32.5,29.56,NNE,13,4.0,13.0,98,0.00,,---,0.00,VWS V14.01,2013-02-27 00:19:00,
2013-02-26 18:24:00,32.9,32.4,29.56,East,91,1.0,13.0,98,0.00,,---,0.00,VWS V14.01,2013-02-27 00:24:00,
2013-02-26 18:29:00,33.0,32.5,29.56,East,79,7.0,11.0,98,0.00,,---,0.00,VWS V14.01,2013-02-27 00:29:00,
2013-02-26 18:30:00,33.0,32.5,29.56,ENE,74,8.0,13.0,98,0.00,,---,0.00,VWS V14.01,2013-02-27 00:30:00,
2013-02-26 18:34:00,33.0,32.5,29.56,NE,56,2.0,12.0,98,0.00,,---,0.00,VWS V14.01,2013-02-27 00:34:00,
2013-02-26 18:39:00,33.0,32.5,29.56,East,94,3.0,13.0,98,0.00,,---,0.00,VWS V14.01,2013-02-27 00:39:00,
2013-02-26 18:44:00,33.1,32.6,29.56,ESE,105,5.0,13.0,98,0.00,,---,0.00,VWS V14.01,2013-02-27 00:44:00,
2013-02-26 18:49:00,33.1,32.6,29.56,East,84,0.0,13.0,98,0.00,,---,0.00,VWS V14.01,2013-02-27 00:49:00,
2013-02-26 18:54:00,33.1,32.6,29.55,East,91,4.0,13.0,98,0.00,,---,0.00,VWS V14.01,2013-02-27 00:54:00,
2013-02-26 18:59:00,33.1,32.6,29.55,ENE,71,4.0,7.0,98,0.00,,---,0.00,VWS V14.01,2013-02-27 00:59:00,
2013-02-26 19:00:00,33.1,32.6,29.56,East,84,2.0,13.0,98,0.00,,---,0.00,VWS V14.01,2013-02-27 01:00:00,
2013-02-26 19:04:00,33.1,32.6,29.55,NE,42,5.0,11.0,98,0.00,,---,0.00,VWS V14.01,2013-02-27 01:04:00,
2013-02-26 19:08:00,33.2,32.7,29.55,ENE,65,4.0,15.0,98,0.00,,---,0.00,VWS V14.01,2013-02-27 01:08:00,
2013-02-26 19:13:00,33.2,32.7,29.55,NE,47,6.0,15.0,98,0.00,,---,0.00,VWS V14.01,2013-02-27 01:13:00,
2013-02-26 19:18:00,33.2,32.7,29.55,East,82,1.0,15.0,98,0.00,,---,0.00,VWS V14.01,2013-02-27 01:18:00,
2013-02-26 19:23:00,33.2,32.7,29.55,ENE,74,4.0,15.0,98,0.00,,---,0.00,VWS V14.01,2013-02-27 01:23:00,
2013-02-26 19:28:00,33.2,32.7,29.55,ENE,70,2.0,4.0,98,0.00,,---,0.00,VWS V14.01,2013-02-27 01:28:00,
2013-02-26 19:30:00,33.2,32.7,29.55,ENE,65,4.0,15.0,98,0.00,,---,0.00,VWS V14.01,2013-02-27 01:30:00,
2013-02-26 19:33:00,33.3,32.8,29.54,ENE,77,6.0,13.0,98,0.00,,---,0.00,VWS V14.01,2013-02-27 01:33:00,
2013-02-26 19:38:00,33.2,32.7,29.54,East,81,5.0,13.0,98,0.00,,---,0.00,VWS V14.01,2013-02-27 01:38:00,
2013-02-26 19:43:00,33.2,32.7,29.54,ENE,62,4.0,16.0,98,0.00,,---,0.00,VWS V14.01,2013-02-27 01:43:00,
2013-02-26 19:48:00,33.2,32.7,29.54,ESE,115,2.0,16.0,98,0.00,,---,0.00,VWS V14.01,2013-02-27 01:48:00,
2013-02-26 19:53:00,33.2,32.7,29.54,NNW,340,4.0,16.0,98,0.00,,---,0.00,VWS V14.01,2013-02-27 01:53:00,
2013-02-26 19:58:00,33.2,32.7,29.54,NNE,12,3.0,5.0,98,0.00,,---,0.00,VWS V14.01,2013-02-27 01:58:00,
2013-02-26 20:00:00,33.2,32.7,29.54,East,92,5.0,16.0,98,0.00,,---,0.00,VWS V14.01,2013-02-27 02:00:00,
2013-02-26 20:03:00,33.2,32.7,29.53,East,99,2.0,9.0,98,0.00,,---,0.00,VWS V14.01,2013-02-27 02:03:00,
2013-02-26 20:08:00,33.2,32.7,29.53,ENE,68,6.0,9.0,98,0.00,,---,0.00,VWS V14.01,2013-02-27 02:08:00,
2013-02-26 20:13:00,33.3,32.8,29.53,ENE,70,4.0,13.0,98,0.00,,---,0.00,VWS V14.01,2013-02-27 02:13:00,
2013-02-26 20:18:00,33.3,32.8,29.53,NNE,23,3.0,13.0,98,0.00,,---,0.00,VWS V14.01,2013-02-27 02:18:00,
2013-02-26 20:24:00,33.3,32.8,29.53,NE,49,12.0,13.0,98,0.00,,---,0.00,VWS V14.01,2013-02-27 02:24:00,
2013-02-26 20:29:00,33.3,32.8,29.53,East,81,7.0,10.0,98,0.00,,---,0.00,VWS V14.01,2013-02-27 02:29:00,
2013-02-26 20:30:00,33.3,32.8,29.53,SE,143,6.0,16.0,98,0.00,,---,0.00,VWS V14.01,2013-02-27 02:30:00,
2013-02-26 20:34:00,33.3,32.8,29.53,NNE,13,3.0,10.0,98,0.00,,---,0.00,VWS V14.01,2013-02-27 02:34:00,
2013-02-26 20:39:00,33.2,32.7,29.52,ENE,77,1.0,11.0,98,0.00,,---,0.00,VWS V14.01,2013-02-27 02:39:00,
2013-02-26 20:44:00,33.2,32.7,29.52,ESE,106,3.0,11.0,98,0.00,,---,0.00,VWS V14.01,2013-02-27 02:44:00,
2013-02-26 20:49:00,33.2,32.7,29.52,ENE,73,2.0,15.0,98,0.00,,---,0.00,VWS V14.01,2013-02-27 02:49:00,
2013-02-26 20:54:00,33.2,32.7,29.52,NNW,340,4.0,15.0,98,0.00,,---,0.00,VWS V14.01,2013-02-27 02:54:00,
2013-02-26 20:59:00,33.2,32.7,29.51,ENE,70,2.0,5.0,98,0.00,,---,0.00,VWS V14.01,2013-02-27 02:59:00,
2013-02-26 21:00:00,33.2,32.7,29.51,ENE,74,5.0,15.0,98,0.00,,---,0.00,VWS V14.01,2013-02-27 03:00:00,
2013-02-26 21:04:00,33.2,32.7,29.51,NNE,25,4.0,11.0,98,0.00,,---,0.00,VWS V14.01,2013-02-27 03:04:00,
2013-02-26 21:09:00,33.2,32.7,29.51,ENE,70,3.0,11.0,98,0.00,,---,0.00,VWS V14.01,2013-02-27 03:09:00,
2013-02-26 21:14:00,33.2,32.7,29.51,NNW,336,1.0,11.0,98,0.00,,---,0.00,VWS V14.01,2013-02-27 03:14:00,
2013-02-26 21:19:00,33.2,32.7,29.51,ENE,57,1.0,11.0,98,0.00,,---,0.00,VWS V14.01,2013-02-27 03:19:00,
2013-02-26 21:24:00,33.3,32.8,29.51,ESE,105,3.0,11.0,98,0.01,,---,0.01,VWS V14.01,2013-02-27 03:24:00,
2013-02-26 21:29:00,33.3,32.8,29.50,ESE,109,0.0,2.0,98,0.01,,---,0.01,VWS V14.01,2013-02-27 03:29:00,
2013-02-26 21:30:00,33.3,32.8,29.50,NE,40,2.0,11.0,98,0.01,,---,0.01,VWS V14.01,2013-02-27 03:30:00,
2013-02-26 21:34:00,33.3,32.8,29.50,NE,34,1.0,6.0,98,0.01,,---,0.01,VWS V14.01,2013-02-27 03:34:00,
2013-02-26 21:39:00,33.4,32.9,29.50,NE,46,1.0,9.0,98,0.01,,---,0.01,VWS V14.01,2013-02-27 03:39:00,
2013-02-26 21:44:00,33.5,33.0,29.50,SSE,158,2.0,9.0,98,0.02,,---,0.02,VWS V14.01,2013-02-27 03:44:00,
2013-02-26 21:49:00,33.6,33.1,29.49,NNE,27,2.0,9.0,98,0.02,,---,0.02,VWS V14.01,2013-02-27 03:49:00,
2013-02-26 21:54:00,33.7,33.2,29.49,ENE,72,3.0,9.0,98,0.02,,---,0.02,VWS V14.01,2013-02-27 03:54:00,
2013-02-26 21:59:00,33.7,33.2,29.49,East,96,2.0,4.0,98,0.03,,---,0.03,VWS V14.01,2013-02-27 03:59:00,
2013-02-26 22:00:00,33.8,33.3,29.49,NNW,347,1.0,9.0,98,0.03,,---,0.03,VWS V14.01,2013-02-27 04:00:00,
2013-02-26 22:04:00,33.8,33.3,29.49,East,95,0.0,7.0,98,0.03,,---,0.03,VWS V14.01,2013-02-27 04:04:00,
2013-02-26 22:09:00,33.9,33.4,29.49,ESE,117,1.0,8.0,98,0.03,,---,0.03,VWS V14.01,2013-02-27 04:09:00,
2013-02-26 22:14:00,34.0,33.5,29.49,NE,34,8.0,11.0,98,0.03,,---,0.03,VWS V14.01,2013-02-27 04:14:00,
2013-02-26 22:19:00,34.0,33.5,29.49,ESE,107,0.0,11.0,98,0.04,,---,0.04,VWS V14.01,2013-02-27 04:19:00,
2013-02-26 22:24:00,34.1,33.6,29.49,East,83,2.0,11.0,98,0.04,,---,0.04,VWS V14.01,2013-02-27 04:24:00,
2013-02-26 22:29:00,34.1,33.6,29.48,NNE,33,1.0,7.0,98,0.03,,---,0.04,VWS V14.01,2013-02-27 04:29:00,
2013-02-26 22:30:00,34.1,33.6,29.48,ESE,105,7.0,11.0,98,0.04,,---,0.04,VWS V14.01,2013-02-27 04:30:00,
2013-02-26 22:34:00,34.1,33.6,29.48,ENE,64,7.0,10.0,98,0.04,,---,0.05,VWS V14.01,2013-02-27 04:34:00,
2013-02-26 22:39:00,34.2,33.7,29.48,East,86,1.0,10.0,98,0.05,,---,0.06,VWS V14.01,2013-02-27 04:39:00,
2013-02-26 22:44:00,34.1,33.6,29.48,ESE,120,1.0,10.0,98,0.07,,---,0.08,VWS V14.01,2013-02-27 04:44:00,
2013-02-26 22:49:00,34.1,33.6,29.48,East,96,1.0,10.0,98,0.08,,---,0.09,VWS V14.01,2013-02-27 04:49:00,
2013-02-26 22:54:00,34.1,33.6,29.48,ESE,113,3.0,10.0,98,0.10,,---,0.11,VWS V14.01,2013-02-27 04:54:00,
2013-02-26 22:59:00,34.1,33.6,29.47,East,79,2.0,2.0,98,0.09,,---,0.01,VWS V14.01,2013-02-27 04:59:00,
2013-02-26 23:00:00,34.1,33.6,29.47,East,87,4.0,7.0,98,0.09,,---,0.01,VWS V14.01,2013-02-27 05:00:00,
2013-02-26 23:05:00,34.2,33.7,29.47,NE,40,2.0,7.0,98,0.09,,---,0.01,VWS V14.01,2013-02-27 05:05:00,
2013-02-26 23:10:00,34.2,33.7,29.47,East,83,0.0,7.0,98,0.10,,---,0.02,VWS V14.01,2013-02-27 05:10:00,
2013-02-26 23:15:00,34.2,33.7,29.48,ENE,64,2.0,7.0,98,0.10,,---,0.02,VWS V14.01,2013-02-27 05:15:00,
2013-02-26 23:20:00,34.3,33.8,29.47,East,85,1.0,7.0,98,0.11,,---,0.03,VWS V14.01,2013-02-27 05:20:00,
2013-02-26 23:25:00,34.3,33.8,29.47,SW,228,0.0,7.0,98,0.11,,---,0.03,VWS V14.01,2013-02-27 05:25:00,
2013-02-26 23:30:00,34.2,33.7,29.47,SE,134,0.0,3.0,98,0.11,,---,0.04,VWS V14.01,2013-02-27 05:30:00,
2013-02-26 23:35:00,34.3,33.8,29.47,ESE,114,1.0,4.0,98,0.11,,---,0.04,VWS V14.01,2013-02-27 05:35:00,
2013-02-26 23:40:00,34.3,33.8,29.47,East,79,0.0,4.0,98,0.12,,---,0.05,VWS V14.01,2013-02-27 05:40:00,
2013-02-26 23:45:00,34.3,33.8,29.47,ENE,68,0.0,4.0,98,0.12,,---,0.05,VWS V14.01,2013-02-27 05:45:00,
2013-02-26 23:50:00,34.3,33.8,29.47,East,82,1.0,4.0,98,0.13,,---,0.06,VWS V14.01,2013-02-27 05:50:00,
2013-02-26 23:55:00,34.3,33.8,29.47,ENE,60,1.0,4.0,98,0.13,,---,0.06,VWS V14.01,2013-02-27 05:55:00,